This is the latest recevied weather packets stored in our database for station/object SQ8NA-15. If no packets are shown the sender has not sent any weather packets the latest 10 day(s).
| Time | Temp. | Humidity | Pressure | Rain* | Wind** | Luminosity | Snow |
|---|---|---|---|---|---|---|---|
| 1787744202 | 20° C | 56% | 983.4 hPa | 0 mm | - | 268 W/m² | - |
| 1787743592 | 20.56° C | 56% | 983.5 hPa | 0 mm | - | 460 W/m² | - |
| 1787742366 | 20° C | 56% | 983.6 hPa | 0 mm | - | 317 W/m² | - |
| 1787741766 | 19.44° C | 56% | 983.7 hPa | 0 mm | - | 463 W/m² | - |
| 1787741153 | 19.44° C | 58% | 983.7 hPa | 0 mm | - | 255 W/m² | - |
| 1787739927 | 19.44° C | 57% | 983.7 hPa | 0 mm | - | 231 W/m² | - |
| 1787739316 | 19.44° C | 56% | 983.6 hPa | 0 mm | - | 369 W/m² | - |
| 1787738703 | 19.44° C | 56% | 983.4 hPa | 0 mm | - | 504 W/m² | - |
| 1787737477 | 19.44° C | 57% | 983.5 hPa | 0 mm | - | 357 W/m² | - |
| 1787736877 | 19.44° C | 58% | 983.3 hPa | 0 mm | - | 513 W/m² | - |
| 1787736267 | 19.44° C | 60% | 983.3 hPa | 0 mm | - | 518 W/m² | - |
| 1787735041 | 18.33° C | 64% | 983.3 hPa | 0 mm | - | 375 W/m² | - |
| 1787734441 | 17.78° C | 64% | 983.2 hPa | 0 mm | - | 387 W/m² | - |
| 1787733827 | 17.78° C | 65% | 983.2 hPa | 0 mm | - | 340 W/m² | - |
| 1787732591 | 17.22° C | 68% | 983.2 hPa | 0 mm | - | 264 W/m² | - |
| 1787731977 | 16.67° C | 68% | 983.2 hPa | 0 mm | - | 258 W/m² | - |
| 1787731367 | 16.67° C | 68% | 983.1 hPa | 0 mm | - | 228 W/m² | - |
| 1787730141 | 16.67° C | 70% | 983 hPa | 0 mm | - | 166 W/m² | - |
| 1787729527 | 16.11° C | 70% | 982.9 hPa | 0 mm | - | 227 W/m² | - |
| 1787728916 | 16.11° C | 72% | 982.7 hPa | 0 mm | - | 204 W/m² | - |
| 1787727677 | 15.56° C | 71% | 982.6 hPa | 0 mm | - | 128 W/m² | - |
| 1787727077 | 15.56° C | 73% | 982.6 hPa | 0 mm | - | 112 W/m² | - |
| 1787726466 | 15.56° C | 73% | 982.4 hPa | 0 mm | - | 96 W/m² | - |
| 1787725852 | 15° C | 75% | 982.5 hPa | 0 mm | - | 128 W/m² | - |
| 1787724627 | 15° C | 74% | 982.3 hPa | 0 mm | - | 86 W/m² | - |
* Rain latest hour (hover to see other rain measurements)
** Current wind speed in m/s (hover to see current wind gust speed)